This is the latest recevied weather packets stored in our database for station/object DL9TPA-1. If no packets are shown the sender has not sent any weather packets the latest 10 day(s).
| Time | Temp. | Humidity | Pressure | Rain* | Wind** | Luminosity | Snow |
|---|---|---|---|---|---|---|---|
| 1777920616 | 18.89° C | 61% | 1011.4 hPa | 0 mm | - | - | - |
| 1777920014 | 19.44° C | 61% | 1011.2 hPa | 0 mm | - | - | - |
| 1777919415 | 19.44° C | 59% | 1011.2 hPa | 0 mm | - | - | - |
| 1777918810 | 19.44° C | 59% | 1011.1 hPa | 0 mm | - | - | - |
| 1777918207 | 20° C | 58% | 1011.1 hPa | 0 mm | - | - | - |
| 1777917608 | 20° C | 57% | 1011.1 hPa | 0 mm | - | - | - |
| 1777917006 | 20.56° C | 56% | 1011.1 hPa | 0 mm | - | - | - |
| 1777916402 | 20.56° C | 56% | 1011.1 hPa | 0 mm | - | - | - |
| 1777915800 | 21.11° C | 55% | 1011.1 hPa | 0 mm | - | - | - |
| 1777915197 | 21.11° C | 54% | 1011.1 hPa | 0 mm | - | - | - |
| 1777914596 | 21.67° C | 53% | 1011.1 hPa | 0 mm | - | - | - |
| 1777913994 | 21.67° C | 52% | 1011.2 hPa | 0 mm | - | - | - |
| 1777913392 | 21.67° C | 51% | 1011.2 hPa | 0 mm | - | - | - |
| 1777912792 | 22.22° C | 51% | 1011.3 hPa | 0 mm | - | - | - |
| 1777912188 | 22.22° C | 50% | 1011.2 hPa | 0 mm | - | - | - |
| 1777911587 | 22.78° C | 50% | 1011.2 hPa | 0 mm | - | - | - |
| 1777910987 | 22.78° C | 50% | 1011.3 hPa | 0 mm | - | - | - |
| 1777910381 | 22.78° C | 49% | 1011.3 hPa | 0 mm | - | - | - |
| 1777909781 | 23.33° C | 48% | 1011.3 hPa | 0 mm | - | - | - |
| 1777909178 | 23.89° C | 47% | 1011.4 hPa | 0 mm | - | - | - |
| 1777908576 | 24.44° C | 46% | 1011.4 hPa | 0 mm | - | - | - |
| 1777907973 | 25° C | 45% | 1011.5 hPa | 0 mm | - | - | - |
| 1777907371 | 26.11° C | 42% | 1011.4 hPa | 0 mm | - | - | - |
| 1777906772 | 26.67° C | 42% | 1011.5 hPa | 0 mm | - | - | - |
| 1777906168 | 27.22° C | 41% | 1011.6 hPa | 0 mm | - | - | - |
* Rain latest hour (hover to see other rain measurements)
** Current wind speed in m/s (hover to see current wind gust speed)